This is the latest recevied weather packets stored in our database for station/object lw9ero. If no packets are shown the sender has not sent any weather packets the latest 10 day(s).
| Time | Temp. | Humidity | Pressure | Rain* | Wind** | Luminosity | Snow |
|---|---|---|---|---|---|---|---|
| 1777768091 | 6.11° C | 74% | 1031.5 hPa | 0 mm | - | 1251 W/m² | - |
| 1777767485 | 6.11° C | 72% | 1031.5 hPa | 0 mm | - | 1251 W/m² | - |
| 1777766878 | 6.67° C | 72% | 1031.5 hPa | 0 mm | - | 1251 W/m² | - |
| 1777766272 | 6.11° C | 72% | 1031.3 hPa | 0 mm | - | 1324 W/m² | - |
| 1777765666 | 6.67° C | 71% | 1031.5 hPa | 0 mm | - | 1324 W/m² | - |
| 1777765059 | 6.67° C | 70% | 1031.6 hPa | 0 mm | - | 1324 W/m² | - |
| 1777764454 | 7.22° C | 68% | 1031.4 hPa | 0 mm | - | 1397 W/m² | - |
| 1777763847 | 7.78° C | 67% | 1031.4 hPa | 0 mm | - | 1397 W/m² | - |
| 1777763242 | 7.78° C | 66% | 1031.3 hPa | 0 mm | - | 1397 W/m² | - |
| 1777762635 | 7.78° C | 66% | 1031.4 hPa | 0 mm | - | 1397 W/m² | - |
| 1777762029 | 8.33° C | 64% | 1031.3 hPa | 0 mm | - | 1397 W/m² | - |
| 1777761423 | 8.33° C | 63% | 1031.5 hPa | 0 mm | - | 1397 W/m² | - |
| 1777760817 | 8.89° C | 62% | 1031.3 hPa | 0 mm | - | 1434 W/m² | - |
| 1777760210 | 9.44° C | 59% | 1031.3 hPa | 0 mm | - | 1434 W/m² | - |
| 1777759606 | 9.44° C | 59% | 1031.4 hPa | 0 mm | - | 1434 W/m² | - |
| 1777758998 | 9.44° C | 58% | 1031.3 hPa | 0 mm | - | 1434 W/m² | - |
| 1777758391 | 10° C | 58% | 1031.5 hPa | 0 mm | - | 1434 W/m² | - |
| 1777757785 | 10° C | 57% | 1031.3 hPa | 0 mm | - | 1434 W/m² | - |
| 1777757180 | 11.11° C | 54% | 1031.4 hPa | 0 mm | - | 1434 W/m² | - |
| 1777756572 | 11.67° C | 51% | 1031.3 hPa | 0 mm | - | 1434 W/m² | - |
| 1777755967 | 12.22° C | 50% | 1031.5 hPa | 0 mm | - | 1434 W/m² | - |
| 1777755360 | 12.78° C | 48% | 1031.3 hPa | 0 mm | - | 1434 W/m² | - |
| 1777754754 | 12.78° C | 46% | 1031.4 hPa | 0 mm | - | 1434 W/m² | - |
| 1777754149 | 13.33° C | 45% | 1031.5 hPa | 0 mm | - | 1434 W/m² | - |
| 1777753541 | 13.33° C | 44% | 1031.4 hPa | 0 mm | - | 1397 W/m² | - |
* Rain latest hour (hover to see other rain measurements)
** Current wind speed in m/s (hover to see current wind gust speed)